Time,TemperatureF,DewpointF,PressureIn,WindDirection,WindDirectionDegrees,WindSpeedMPH,WindSpeedGustMPH,Humidity,HourlyPrecipIn,Conditions,Clouds,dailyrainin,SoftwareType,DateUTC
2013-08-05 10:34:00,65.2,56.3,30.19,WSW,240,2.0,4.0,73,0.00,,,0.00,Wunderground v.1.15,2013-08-05 14:34:00,
2013-08-05 10:40:00,65.7,58.3,30.19,WSW,243,2.0,5.0,77,0.00,,,0.00,Wunderground v.1.15,2013-08-05 14:40:00,
2013-08-05 10:44:00,66.3,57.8,30.19,SSW,199,1.0,5.0,74,0.00,,,0.00,Wunderground v.1.15,2013-08-05 14:44:00,
2013-08-05 10:50:00,66.4,55.5,30.19,SSW,212,1.0,1.0,68,0.00,,,0.00,Wunderground v.1.15,2013-08-05 14:50:00,
2013-08-05 10:55:00,66.5,57.6,30.19,SW,230,2.0,12.0,73,0.00,,,0.00,Wunderground v.1.15,2013-08-05 14:55:00,
2013-08-05 11:00:00,66.3,52.9,30.19,SW,224,3.0,3.0,62,0.00,,,0.00,Wunderground v.1.15,2013-08-05 15:00:00,
2013-08-05 11:05:00,66.7,56.6,30.19,SSW,195,3.0,5.0,70,0.00,,,0.00,Wunderground v.1.15,2013-08-05 15:05:00,
2013-08-05 11:15:00,68.0,56.2,30.19,ESE,111,1.0,5.0,66,0.00,,,0.00,Wunderground v.1.15,2013-08-05 15:15:00,
2013-08-05 11:20:00,68.4,56.6,30.19,SW,218,1.0,1.0,66,0.00,,,0.00,Wunderground v.1.15,2013-08-05 15:20:00,
2013-08-05 11:25:00,68.3,55.6,30.19,SW,232,1.0,3.0,64,0.00,,,0.00,Wunderground v.1.15,2013-08-05 15:25:00,
2013-08-05 11:30:00,67.6,55.4,30.19,West,261,1.0,3.0,65,0.00,,,0.00,Wunderground v.1.15,2013-08-05 15:30:00,
2013-08-05 11:35:00,67.1,53.6,30.18,SSW,207,2.0,7.0,62,0.00,,,0.00,Wunderground v.1.15,2013-08-05 15:35:00,
2013-08-05 11:45:00,67.2,54.6,30.18,SW,215,1.0,2.0,64,0.00,,,0.00,Wunderground v.1.15,2013-08-05 15:45:00,
2013-08-05 11:50:00,67.1,54.9,30.18,South,171,1.0,1.0,65,0.00,,,0.00,Wunderground v.1.15,2013-08-05 15:50:00,
2013-08-05 11:55:00,67.3,54.3,30.18,SSW,213,3.0,3.0,63,0.00,,,0.00,Wunderground v.1.15,2013-08-05 15:55:00,
2013-08-05 11:59:00,67.2,53.7,30.18,SW,230,3.0,3.0,62,0.00,,,0.00,Wunderground v.1.15,2013-08-05 15:59:00,
2013-08-05 12:10:00,68.1,53.7,30.18,South,189,1.0,1.0,60,0.00,,,0.00,Wunderground v.1.15,2013-08-05 16:10:00,
2013-08-05 12:20:00,67.4,53.5,30.17,SW,219,7.0,7.0,61,0.00,,,0.00,Wunderground v.1.15,2013-08-05 16:20:00,
2013-08-05 12:24:00,67.7,51.9,30.17,SW,232,5.0,7.0,57,0.00,,,0.00,Wunderground v.1.15,2013-08-05 16:24:00,
2013-08-05 12:30:00,67.7,52.9,30.17,SSW,200,3.0,3.0,59,0.00,,,0.00,Wunderground v.1.15,2013-08-05 16:30:00,
2013-08-05 12:35:00,67.4,53.9,30.17,SSE,150,1.0,3.0,62,0.00,,,0.00,Wunderground v.1.15,2013-08-05 16:35:00,
2013-08-05 12:40:00,67.5,54.5,30.16,SW,222,0.0,6.0,63,0.00,,,0.00,Wunderground v.1.15,2013-08-05 16:40:00,
2013-08-05 12:44:00,68.3,56.5,30.16,WSW,245,1.0,7.0,66,0.00,,,0.00,Wunderground v.1.15,2013-08-05 16:44:00,
2013-08-05 12:50:00,69.0,54.1,30.16,WSW,254,2.0,14.0,59,0.00,,,0.00,Wunderground v.1.15,2013-08-05 16:50:00,
2013-08-05 12:55:00,68.8,52.5,30.16,SSW,198,4.0,14.0,56,0.00,,,0.00,Wunderground v.1.15,2013-08-05 16:55:00,
2013-08-05 13:00:00,68.2,52.9,30.16,SW,223,5.0,5.0,58,0.00,,,0.00,Wunderground v.1.15,2013-08-05 17:00:00,
2013-08-05 13:05:00,68.4,56.2,30.16,SW,227,2.0,13.0,65,0.00,,,0.00,Wunderground v.1.15,2013-08-05 17:05:00,
2013-08-05 13:10:00,68.4,52.6,30.16,WSW,252,2.0,2.0,57,0.00,,,0.00,Wunderground v.1.15,2013-08-05 17:10:00,
2013-08-05 13:14:00,68.0,53.1,30.16,SW,215,2.0,9.0,59,0.00,,,0.00,Wunderground v.1.15,2013-08-05 17:14:00,
2013-08-05 13:20:00,67.8,54.7,30.16,SW,216,1.0,1.0,63,0.00,,,0.00,Wunderground v.1.15,2013-08-05 17:20:00,
2013-08-05 13:25:00,67.6,52.8,30.16,WSW,249,1.0,1.0,59,0.00,,,0.00,Wunderground v.1.15,2013-08-05 17:25:00,
2013-08-05 13:30:00,67.3,52.5,30.16,SW,236,2.0,4.0,59,0.00,,,0.00,Wunderground v.1.15,2013-08-05 17:30:00,
2013-08-05 13:40:00,67.9,52.6,30.15,West,261,2.0,2.0,58,0.00,,,0.00,Wunderground v.1.15,2013-08-05 17:40:00,
2013-08-05 13:45:00,68.0,51.7,30.15,WSW,246,4.0,4.0,56,0.00,,,0.00,Wunderground v.1.15,2013-08-05 17:45:00,
2013-08-05 13:49:00,68.0,53.6,30.15,South,180,2.0,2.0,60,0.00,,,0.00,Wunderground v.1.15,2013-08-05 17:49:00,
2013-08-05 13:55:00,67.8,54.3,30.15,SSW,209,1.0,2.0,62,0.00,,,0.00,Wunderground v.1.15,2013-08-05 17:55:00,
2013-08-05 14:00:00,67.8,52.9,30.14,SE,145,2.0,2.0,59,0.00,,,0.00,Wunderground v.1.15,2013-08-05 18:00:00,
2013-08-05 14:05:00,68.5,55.8,30.14,SE,132,1.0,15.0,64,0.00,,,0.00,Wunderground v.1.15,2013-08-05 18:05:00,
2013-08-05 14:10:00,69.1,53.7,30.14,SSW,199,1.0,1.0,58,0.00,,,0.00,Wunderground v.1.15,2013-08-05 18:10:00,
2013-08-05 14:15:00,69.1,52.2,30.14,SSW,209,2.0,2.0,55,0.00,,,0.00,Wunderground v.1.15,2013-08-05 18:15:00,
2013-08-05 14:20:00,69.0,52.6,30.14,SW,222,3.0,3.0,56,0.00,,,0.00,Wunderground v.1.15,2013-08-05 18:20:00,
2013-08-05 14:35:00,69.9,53.5,30.14,SSW,209,4.0,9.0,56,0.00,,,0.00,Wunderground v.1.15,2013-08-05 18:35:00,
2013-08-05 14:40:00,69.4,53.5,30.14,SSW,209,4.0,4.0,57,0.00,,,0.00,Wunderground v.1.15,2013-08-05 18:40:00,
2013-08-05 14:45:00,69.1,55.1,30.14,SW,219,1.0,4.0,61,0.00,,,0.00,Wunderground v.1.15,2013-08-05 18:45:00,
2013-08-05 14:50:00,68.9,53.5,30.14,SW,234,2.0,4.0,58,0.00,,,0.00,Wunderground v.1.15,2013-08-05 18:50:00,
2013-08-05 14:55:00,68.9,53.5,30.14,SW,235,2.0,4.0,58,0.00,,,0.00,Wunderground v.1.15,2013-08-05 18:55:00,
2013-08-05 15:00:00,69.0,54.1,30.14,SW,235,1.0,1.0,59,0.00,,,0.00,Wunderground v.1.15,2013-08-05 19:00:00,
2013-08-05 15:05:00,69.3,54.8,30.14,SW,234,0.0,15.0,60,0.00,,,0.00,Wunderground v.1.15,2013-08-05 19:05:00,
2013-08-05 15:10:00,69.5,53.6,30.14,SSW,209,1.0,1.0,57,0.00,,,0.00,Wunderground v.1.15,2013-08-05 19:10:00,
2013-08-05 15:15:00,69.4,52.5,30.13,West,267,1.0,6.0,55,0.00,,,0.00,Wunderground v.1.15,2013-08-05 19:15:00,
2013-08-05 15:20:00,69.2,53.3,30.14,SW,218,2.0,2.0,57,0.00,,,0.00,Wunderground v.1.15,2013-08-05 19:20:00,
2013-08-05 15:30:00,70.0,55.0,30.13,SSW,212,3.0,5.0,59,0.00,,,0.00,Wunderground v.1.15,2013-08-05 19:30:00,
2013-08-05 15:40:00,70.4,54.4,30.13,WSW,243,5.0,6.0,57,0.00,,,0.00,Wunderground v.1.15,2013-08-05 19:40:00,
2013-08-05 15:45:00,70.5,55.0,30.13,SW,235,6.0,6.0,58,0.00,,,0.00,Wunderground v.1.15,2013-08-05 19:45:00,
2013-08-05 15:50:00,70.6,55.1,30.14,SW,236,5.0,6.0,58,0.00,,,0.00,Wunderground v.1.15,2013-08-05 19:50:00,
2013-08-05 15:55:00,70.5,54.5,30.14,SW,235,3.0,6.0,57,0.00,,,0.00,Wunderground v.1.15,2013-08-05 19:55:00,
2013-08-05 16:05:00,69.8,54.4,30.14,SW,223,3.0,9.0,58,0.00,,,0.00,Wunderground v.1.15,2013-08-05 20:05:00,
2013-08-05 16:10:00,69.6,54.2,30.13,WSW,243,4.0,5.0,58,0.00,,,0.00,Wunderground v.1.15,2013-08-05 20:10:00,
2013-08-05 16:20:00,69.3,54.4,30.13,SW,229,5.0,5.0,59,0.00,,,0.00,Wunderground v.1.15,2013-08-05 20:20:00,
2013-08-05 16:25:00,69.2,54.7,30.13,WNW,284,3.0,5.0,60,0.00,,,0.00,Wunderground v.1.15,2013-08-05 20:25:00,
2013-08-05 16:30:00,69.6,54.6,30.13,West,281,1.0,6.0,59,0.00,,,0.00,Wunderground v.1.15,2013-08-05 20:30:00,
2013-08-05 17:20:00,69.9,54.4,30.12,WNW,286,3.0,3.0,58,0.00,,,0.00,Wunderground v.1.15,2013-08-05 21:20:00,
2013-08-05 17:25:00,69.7,53.8,30.12,NW,321,3.0,4.0,57,0.00,,,0.00,Wunderground v.1.15,2013-08-05 21:25:00,
2013-08-05 17:30:00,69.4,54.9,30.12,WSW,242,3.0,4.0,60,0.00,,,0.00,Wunderground v.1.15,2013-08-05 21:30:00,
2013-08-05 17:40:00,69.2,54.3,30.13,WNW,284,0.0,1.0,59,0.00,,,0.00,Wunderground v.1.15,2013-08-05 21:40:00,
2013-08-05 17:50:00,69.7,54.7,30.13,WSW,258,0.0,2.0,59,0.00,,,0.00,Wunderground v.1.15,2013-08-05 21:50:00,
2013-08-05 18:20:00,69.8,55.7,30.12,WSW,250,0.0,0.0,61,0.00,,,0.00,Wunderground v.1.15,2013-08-05 22:20:00,
2013-08-05 19:40:00,67.9,56.5,30.12,West,276,0.0,0.0,67,0.00,,,0.00,Wunderground v.1.15,2013-08-05 23:40:00,
2013-08-05 21:10:00,60.9,57.6,30.13,West,276,0.0,0.0,89,0.00,,,0.00,Wunderground v.1.15,2013-08-06 01:10:00,
2013-08-05 21:30:00,59.5,56.6,30.13,West,276,0.0,0.0,90,0.00,,,0.00,Wunderground v.1.15,2013-08-06 01:30:00,
2013-08-05 21:45:00,58.6,56.0,30.13,ENE,71,0.0,0.0,91,0.00,,,0.00,Wunderground v.1.15,2013-08-06 01:45:00,
2013-08-05 22:20:00,56.8,54.5,30.12,ENE,71,0.0,0.0,92,0.00,,,0.00,Wunderground v.1.15,2013-08-06 02:20:00,
2013-08-05 22:30:00,56.5,54.8,30.12,ENE,71,0.0,0.0,94,0.00,,,0.00,Wunderground v.1.15,2013-08-06 02:30:00,
2013-08-05 23:00:00,55.5,53.8,30.12,ENE,71,0.0,0.0,94,0.00,,,0.00,Wunderground v.1.15,2013-08-06 03:00:00,
2013-08-05 23:30:00,54.7,53.3,30.11,ENE,71,0.0,0.0,95,0.00,,,0.00,Wunderground v.1.15,2013-08-06 03:30:00,